KOREASAT 116

Last updated on Tue Sep 22 2026 00:03:15 GMT+0000 (Coordinated Universal Time)

1 45920U 20048A 26264.51212411 .00000000 00000+0 00000+0 0 9999 2 45920 0.0223 143.3694 0001076 44.3978 113.2029 1.00267062 22600
UTC large
Height (km)
Speed (km/s)
/
Latitude / Longitude
Inclination (degrees)
Orbital Period (minutes)
Azimuth
Elevation
Range (km)
Doppler Factor

Next 0 passes for location: London (51.5072 / 0.1276)

No passes found over London.
KOREASAT 116